Weather in Rubezhnoye

Russia / Chechen Republic     43°43′48″N   45°10′12″E
В апреле 2022 года жителям России запретили посещать сайт meteo.paraplan.net по решению Генеральной прокуратуры. Аудитория сайта уменьшилась в 10 раз. Владельцы сайта не видят смысла в поддержке погодного сервера в таких условиях. Сайт будет закрыт в октябре.
temp.,
°C
wind,
m/s
gust,
m/s
humid.,
%
clouds,
%
prec.,
mm/h
press.,
hPa
HPBL,
m
29 september, thu
thu2900:00+19w227190 0.0 100928
03:00+18wnw226475 0.0 100930
06:00+18wnw346844 0.0 101063
09:00+23w454897 0.0 1012469
12:00+27nnw33378 0.0 10121651
15:00+28nne333488 0.0 10122239
18:00+25nne344154 0.0 101372
21:00+23ene23437 0.0 101554
30 september, fri
fri3000:00+23e2247100 0.0 101552
03:00+20ese23555 0.0 101632
06:00+18ese11600 0.0 101711
09:00+24e34440 0.0 1018577
12:00+28e56320 0.0 10171642
15:00+30e55280 0.0 10162038
18:00+26ese610330 0.0 1018377
21:00+22ese48485 0.0 1019233
1 october, sat
sat100:00+19ese23575 0.0 101951
03:00+18e126185 0.0 101912
06:00+17n11642 0.0 102011
09:00+22nw224116 0.0 1021414
12:00+28nnw33235 0.0 10201081
15:00+29nne33210 0.0 10191540
18:00+25ne22276 0.0 101918
21:00+21ese22460 0.0 101922
2 october, sun
sun200:00+20ese22495 0.0 101811
03:00+19ese22523 0.0 101811
06:00+18ene11545 0.0 101711
09:00+23e223735 0.0 1016385
12:00+28ene44266 0.0 10131129
15:00+30e5623100 0.0 10101641
18:00+24e6939100 0.0 1010394
21:00+20e586477 0.0 1008336
3 october, mon
mon300:00+18e3773100 0.0 1006246
03:00+17ese3777100 0.0 1004175
06:00+16ese3681100 0.0 1005123
09:00+21e4558100 0.0 1005431
12:00+27e4437100 0.0 1005970
15:00+27e5538100 0.0 10051125
18:00+21ene585929 0.0 1008325
21:00+18e357299 0.0 1010192